EW9634 Weather Reports


Display with metric or nautical units.
time (UTC)temp
F
wind
direction
speed
MPH
gust
MPH
rain 1hr
in
rain 24hr
in
rain mn
in
humidity
%
barometer
mb
20260902212403 97 180 2.0 5.0 0.00 0.00 0.00 47 1010.2
20260902211403 97 225 5.0 8.0 0.00 0.00 0.00 46 1010.4
20260902210403 97 203 7.0 12.0 0.00 0.00 0.00 45 1010.4
20260902205403 97 203 6.0 9.0 0.00 0.00 0.00 46 1010.7
20260902204424 97 225 5.0 9.0 0.00 0.00 0.00 47 1010.7
20260902203403 97 248 10.0 12.0 0.00 0.00 0.00 45 1010.8
20260902202403 97 225 10.0 15.0 0.00 0.00 0.00 45 1010.9
20260902201423 97 225 4.0 6.0 0.00 0.00 0.00 48 1010.9
20260902200423 96 225 7.0 15.0 0.00 0.00 0.00 51 1011.1
20260902195403 95 180 4.0 6.0 0.00 0.00 0.00 51 1011.2
20260902194403 96 158 5.0 9.0 0.00 0.00 0.00 50 1011.4
20260902193402 94 203 1.0 1.0 0.00 0.00 0.00 54 1011.5
20260902192402 94 225 4.0 6.0 0.00 0.00 0.00 51 1011.7
20260902191402 96 225 10.0 14.0 0.00 0.00 0.00 51 1011.8
20260902190402 96 203 5.0 9.0 0.00 0.00 0.00 53 1012.0
20260902185403 95 180 8.0 11.0 0.00 0.00 0.00 51 1012.1
20260902184402 96 203 8.0 14.0 0.00 0.00 0.00 51 1012.2
20260902183402 95 225 5.0 10.0 0.00 0.00 0.00 54 1012.4
20260902182403 95 225 5.0 9.0 0.00 0.00 0.00 54 1012.5
20260902181443 94 225 6.0 11.0 0.00 0.00 0.00 53 1012.5
20260902180402 94 225 10.0 14.0 0.00 0.00 0.00 53 1012.6
20260902175402 94 225 7.0 9.0 0.00 0.00 0.00 54 1012.6
20260902174403 93 203 11.0 15.0 0.00 0.00 0.00 54 1012.9
20260902173403 93 203 7.0 13.0 0.00 0.00 0.00 55 1013.0
20260902172402 93 248 12.0 19.0 0.00 0.00 0.00 56 1013.0
20260902171402 93 225 10.0 14.0 0.00 0.00 0.00 56 1013.1
20260902170402 92 203 6.0 12.0 0.00 0.00 0.00 57 1013.2
20260902165402 92 203 9.0 12.0 0.00 0.00 0.00 58 1013.3
20260902164402 91 203 12.0 20.0 0.00 0.00 0.00 57 1013.4
20260902163403 91 203 8.0 15.0 0.00 0.00 0.00 60 1013.4
20260902162402 91 203 12.0 20.0 0.00 0.00 0.00 58 1013.4
20260902161402 90 225 6.0 11.0 0.00 0.00 0.00 61 1013.5
20260902160422 90 225 8.0 12.0 0.00 0.00 0.00 62 1013.5
20260902155423 89 203 7.0 11.0 0.00 0.00 0.00 62 1013.5
20260902154402 89 225 9.0 14.0 0.00 0.00 0.00 64 1013.4
20260902153402 88 225 7.0 11.0 0.00 0.00 0.00 64 1013.4
20260902152422 87 203 3.0 6.0 0.00 0.00 0.00 66 1013.3
20260902151402 86 203 8.0 10.0 0.00 0.00 0.00 67 1013.4
20260902150402 85 203 8.0 11.0 0.00 0.00 0.00 68 1013.3
20260902145402 85 248 7.0 12.0 0.00 0.00 0.00 69 1013.3
20260902144403 85 225 3.0 5.0 0.00 0.00 0.00 69 1013.3
20260902143402 84 225 6.0 8.0 0.00 0.00 0.00 68 1013.3
20260902142402 84 225 8.0 13.0 0.00 0.00 0.00 69 1013.3
20260902141402 83 203 10.0 15.0 0.00 0.00 0.00 69 1013.2
20260902140402 83 180 8.0 10.0 0.00 0.00 0.00 70 1013.3
20260902135402 82 203 6.0 10.0 0.00 0.00 0.00 71 1013.4
20260902134402 81 203 5.0 7.0 0.00 0.00 0.00 72 1013.3
20260902133402 80 180 4.0 7.0 0.00 0.00 0.00 72 1013.2
20260902132402 80 158 4.0 7.0 0.00 0.00 0.00 73 1013.2
20260902131442 79 203 3.0 7.0 0.00 0.00 0.00 74 1013.1
20260902130402 78 158 3.0 7.0 0.00 0.00 0.00 75 1013.1
20260902125402 78 180 4.0 6.0 0.00 0.00 0.00 75 1013.2
20260902124422 77 180 3.0 6.0 0.00 0.00 0.00 76 1013.1
20260902123422 77 203 3.0 9.0 0.00 0.00 0.00 76 1013.0
20260902122402 76 203 4.0 7.0 0.00 0.00 0.00 77 1013.0
20260902121402 76 180 2.0 5.0 0.00 0.00 0.00 77 1012.9
20260902120402 76 203 1.0 3.0 0.00 0.00 0.00 77 1012.9
20260902115401 76 0.0 1.0 0.00 0.00 0.00 77 1012.8
20260902114402 76 203 2.0 5.0 0.00 0.00 0.00 76 1012.9
20260902113402 76 180 3.0 7.0 0.00 0.00 0.00 76 1012.8
20260902112422 76 180 2.0 4.0 0.00 0.00 0.00 76 1012.7
20260902111422 76 158 2.0 5.0 0.00 0.00 0.00 75 1012.7
20260902110402 76 203 2.0 6.0 0.00 0.00 0.00 75 1012.7
20260902105401 77 0.0 1.0 0.00 0.00 0.00 74 1012.6
20260902104422 77 180 1.0 2.0 0.00 0.00 0.00 73 1012.5
20260902103401 77 180 2.0 7.0 0.00 0.00 0.00 73 1012.5
20260902102307 77 203 4.0 5.0 0.00 0.00 0.00 73 1012.4
20260902101303 77 203 1.0 2.0 0.00 0.00 0.00 73 1012.4
20260902100304 78 203 3.0 6.0 0.00 0.00 0.00 72 1012.4
20260902095422 78 180 3.0 7.0 0.00 0.00 0.00 72 1012.4
20260902094423 78 203 1.0 4.0 0.00 0.00 0.00 71 1012.4
20260902093303 78 203 2.0 3.0 0.00 0.00 0.00 72 1012.3
20260902092305 78 180 2.0 5.0 0.00 0.00 0.00 72 1012.3
20260902091303 77 203 1.0 4.0 0.00 0.00 0.00 73 1012.2
20260902090304 77 180 2.0 4.0 0.00 0.00 0.00 73 1012.2
20260902085306 77 180 1.0 2.0 0.00 0.00 0.00 75 1012.4
20260902084304 76 180 1.0 4.0 0.00 0.00 0.00 75 1012.2
20260902083304 76 158 2.0 5.0 0.00 0.00 0.00 75 1012.1
20260902082324 75 180 1.0 2.0 0.00 0.00 0.00 76 1012.1
20260902081323 75 158 2.0 4.0 0.00 0.00 0.00 77 1012.0
20260902080303 75 0.0 1.0 0.00 0.00 0.00 76 1011.8
20260902075306 76 0.0 1.0 0.00 0.00 0.00 74 1011.8
20260902074343 76 0.0 1.0 0.00 0.00 0.00 74 1011.8
20260902073303 77 0.0 1.0 0.00 0.00 0.00 73 1011.8
20260902072309 77 0.0 1.0 0.00 0.00 0.00 72 1011.9
20260902071303 77 0.0 1.0 0.00 0.00 0.00 72 1011.7
20260902070323 77 0.0 1.0 0.00 0.00 0.00 72 1011.8
20260902065306 77 158 1.0 2.0 0.00 0.00 0.00 72 1011.9
20260902064303 77 158 1.0 2.0 0.00 0.00 0.00 73 1012.0
20260902063303 77 0.0 1.0 0.00 0.00 0.00 73 1012.0
20260902062306 77 0.0 1.0 0.00 0.00 0.00 73 1012.0
20260902061303 77 0.0 1.0 0.00 0.00 0.00 72 1012.0
20260902060303 77 0.0 1.0 0.00 0.00 0.00 73 1011.8
20260902055306 77 0.0 1.0 0.00 0.00 0.00 73 1011.9
20260902054303 78 0.0 0.0 0.00 0.00 0.00 71 1011.8
20260902053304 78 0.0 0.0 0.00 0.00 0.00 69 1011.8
20260902052323 79 0.0 1.0 0.00 0.00 0.00 68 1011.8
20260902051303 79 0.0 1.0 0.00 0.00 0.00 67 1011.8
20260902050303 80 180 1.0 3.0 0.00 0.00 0.00 68 1011.7
20260902045402 80 0.0 0.0 0.00 0.00 0.00 67 1012.0
20260902044402 80 0.0 1.0 0.00 0.00 0.00 66 1011.9
20260902043402 80 0.0 1.0 0.00 0.00 0.00 66 1011.9
20260902042402 81 0.0 1.0 0.00 0.00 0.00 65 1012.0
20260902041401 81 158 1.0 3.0 0.00 0.00 0.00 64 1011.9
20260902040404 81 180 1.0 2.0 0.00 0.00 0.00 65 1011.9
20260902035403 81 180 1.0 2.0 0.00 0.00 0.00 65 1011.9
20260902034404 82 158 3.0 4.0 0.00 0.00 0.00 64 1011.9
20260902033403 81 0.0 2.0 0.00 0.00 0.00 66 1011.8
20260902032404 80 180 1.0 2.0 0.00 0.00 0.00 67 1011.7
20260902031404 81 180 1.0 1.0 0.00 0.00 0.00 67 1011.5
20260902030424 81 180 1.0 2.0 0.00 0.00 0.00 66 1011.3
20260902025403 82 180 1.0 2.0 0.00 0.00 0.00 66 1011.3
20260902024404 81 158 1.0 2.0 0.00 0.00 0.00 68 1011.1
20260902023404 80 158 1.0 2.0 0.00 0.00 0.00 70 1011.1
20260902022403 80 158 1.0 3.0 0.00 0.00 0.00 71 1011.1
20260902021403 80 0.0 1.0 0.00 0.00 0.00 71 1011.0
20260902020404 80 0.0 0.0 0.00 0.00 0.00 72 1010.9
20260902015403 80 0.0 1.0 0.00 0.00 0.00 73 1010.8
20260902014404 80 0.0 0.0 0.00 0.00 0.00 74 1010.6
20260902013403 81 0.0 1.0 0.00 0.00 0.00 75 1010.6
20260902012403 82 0.0 0.0 0.00 0.00 0.00 71 1010.5
20260902011403 83 0.0 1.0 0.00 0.00 0.00 65 1010.4
20260902010403 84 0.0 1.0 0.00 0.00 0.00 65 1010.5
20260902005404 84 0.0 0.0 0.00 0.00 0.00 66 1010.5
20260902004403 86 158 1.0 3.0 0.00 0.00 0.00 64 1010.5
20260902003403 88 0.0 0.0 0.00 0.00 0.00 66 1010.6
20260902002403 89 0.0 1.0 0.00 0.00 0.00 56 1010.6
20260902001423 90 0.0 0.0 0.00 0.00 0.00 55 1010.7
20260902000423 91 0.0 0.0 0.00 0.00 0.00 59 1010.8
20260901235423 93 158 1.0 2.0 0.00 0.00 0.00 48 1010.8
20260901234403 93 158 1.0 3.0 0.00 0.00 0.00 50 1010.9
20260901233403 94 0.0 1.0 0.00 0.00 0.00 45 1011.0
20260901232403 94 203 1.0 2.0 0.00 0.00 0.00 45 1011.0
20260901231403 95 180 1.0 3.0 0.00 0.00 0.00 45 1011.0
20260901230403 95 225 2.0 4.0 0.00 0.00 0.00 44 1010.9
20260901225403 96 203 3.0 5.0 0.00 0.00 0.00 42 1010.9
20260901224423 96 158 6.0 10.0 0.00 0.00 0.00 41 1011.1
20260901223403 96 180 8.0 14.0 0.00 0.00 0.00 40 1011.0
20260901222403 96 180 3.0 5.0 0.00 0.00 0.00 42 1011.2
20260901221403 96 225 6.0 8.0 0.00 0.00 0.00 40 1011.2
20260901220403 97 158 5.0 7.0 0.00 0.00 0.00 42 1011.3
20260901215403 97 203 5.0 8.0 0.00 0.00 0.00 40 1011.2
20260901214403 97 203 8.0 11.0 0.00 0.00 0.00 40 1011.3
20260901213543 97 158 7.0 10.0 0.00 0.00 0.00 41 1011.4